Overview Statistics Trail Chart Weather Telemetry Raw packets
 

This is the latest recevied weather packets stored in our database for station/object NB9X. If no packets are shown the sender has not sent any weather packets the latest 10 day(s).

<< 3 4 5 6 7 8 9 >>
Time Temp. Humidity Pressure Rain* Wind** Luminosity Snow
1788624858 33.89° C 100% 1013.8 hPa 0 mm - - -
1788624558 32.22° C 100% 1013.8 hPa 0 mm - - -
1788624258 32.78° C 100% 1013.9 hPa 0 mm - - -
1788623958 33.89° C 100% 1013.9 hPa 0 mm - - -
1788623658 33.33° C 100% 1013.9 hPa 0 mm - - -
1788623358 32.78° C 100% 1013.7 hPa 0 mm - - -
1788623058 32.78° C 100% 1013.8 hPa 0 mm - - -
1788622758 32.78° C 100% 1013.8 hPa 0 mm - - -
1788622458 32.78° C 100% 1013.8 hPa 0 mm - - -
1788622158 31.67° C 100% 1013.8 hPa 0 mm - - -
1788621858 33.33° C 100% 1013.7 hPa 0 mm - - -
1788621558 32.22° C 100% 1013.8 hPa 0 mm - - -
1788621258 31.67° C 100% 1013.9 hPa 0 mm - - -
1788620958 31.11° C 100% 1013.8 hPa 0 mm - - -
1788620658 31.11° C 100% 1013.8 hPa 0 mm - - -
1788620358 30.56° C 100% 1013.8 hPa 0 mm - - -
1788620058 32.22° C 100% 1013.7 hPa 0 mm - - -
1788619758 31.67° C 100% 1013.6 hPa 0 mm - - -
1788619458 32.22° C 100% 1013.5 hPa 0 mm - - -
1788619158 32.22° C 100% 1013.4 hPa 0 mm - - -
1788618858 31.67° C 100% 1013.3 hPa 0 mm - - -
1788618558 31.67° C 100% 1013.2 hPa 0 mm - - -
1788618258 31.67° C 100% 1013.3 hPa 0 mm - - -
1788617958 31.11° C 100% 1013.3 hPa 0 mm - - -
1788617658 31.11° C 100% 1013.3 hPa 0 mm - - -

* Rain latest hour (hover to see other rain measurements)
** Current wind speed in m/s (hover to see current wind gust speed)